KB6LA Weather Reports


Display with metric or nautical units.
time (UTC)temp
F
wind
direction
speed
MPH
gust
MPH
rain 1hr
in
rain 24hr
in
rain mn
in
humidity
%
barometer
mb
20260508094216 59 308 1.0 3.0 0.00 0.00 0.00 88 1014.5
20260508093708 59 288 2.0 4.0 0.00 0.00 0.00 88 1014.5
20260508093201 59 283 3.0 4.0 0.00 0.00 0.00 89 1014.5
20260508091637 60 264 0.0 2.0 0.00 0.00 0.00 90 1014.5
20260508091131 60 244 1.0 2.0 0.00 0.00 0.00 90 1014.5
20260508090622 59 242 1.0 2.0 0.00 0.00 0.00 90 1014.8
20260508090115 59 243 2.0 2.0 0.00 0.00 0.00 89 1014.5
20260508085608 60 266 1.0 1.0 0.00 0.00 0.00 89 1014.5
20260508085100 60 267 0.0 1.0 0.00 0.00 0.00 89 1014.8
20260508084552 60 270 1.0 1.0 0.00 0.00 0.00 89 1014.5
20260508084045 60 271 1.0 2.0 0.00 0.00 0.00 89 1014.8
20260508083537 60 254 1.0 2.0 0.00 0.00 0.00 89 1014.8
20260508083030 60 228 2.0 2.0 0.00 0.00 0.00 89 1014.8
20260508082522 60 255 0.0 1.0 0.00 0.00 0.00 88 1014.8
20260508082014 60 256 0.0 1.0 0.00 0.00 0.00 88 1014.8
20260508081506 60 256 0.0 3.0 0.00 0.00 0.00 88 1014.8
20260508080452 60 150 2.0 3.0 0.00 0.00 0.00 88 1015.1
20260508075436 60 206 2.0 4.0 0.00 0.00 0.00 88 1015.1
20260508073913 60 217 1.0 3.0 0.00 0.00 0.00 87 1015.1
20260508073405 60 204 1.0 3.0 0.00 0.00 0.00 87 1015.1
20260508072858 60 176 3.0 3.0 0.00 0.00 0.00 87 1015.1
20260508072350 60 216 2.0 3.0 0.00 0.00 0.00 87 1015.1
20260508071843 60 267 0.0 3.0 0.00 0.00 0.00 87 1015.1
20260508071335 60 350 0.0 2.0 0.00 0.00 0.00 88 1015.1
20260508070828 60 24 2.0 2.0 0.00 0.00 0.00 87 1015.1
20260508065812 60 294 0.0 3.0 0.00 0.00 0.00 88 1015.1
20260508065307 60 141 1.0 3.0 0.00 0.00 0.00 88 1015.1
20260508064757 60 179 0.0 2.0 0.00 0.00 0.00 88 1015.1
20260508064250 60 178 0.0 2.0 0.00 0.00 0.00 88 1015.1
20260508063234 60 272 0.0 3.0 0.00 0.00 0.00 88 1015.1
20260508062727 60 251 0.0 1.0 0.00 0.00 0.00 88 1015.1
20260508062219 60 252 1.0 1.0 0.00 0.00 0.00 88 1014.8
20260508061713 60 248 0.0 2.0 0.00 0.00 0.00 88 1015.1
20260508061204 60 249 0.0 2.0 0.00 0.00 0.00 88 1014.8
20260508060657 59 199 0.0 3.0 0.00 0.00 0.00 88 1014.8
20260508055642 60 175 4.0 7.0 0.00 0.00 0.00 88 1015.1
20260508055135 60 171 2.0 3.0 0.00 0.00 0.00 88 1014.8
20260508054626 60 132 1.0 4.0 0.00 0.00 0.00 89 1014.8
20260508054119 59 247 0.0 6.0 0.00 0.00 0.00 88 1015.1
20260508053611 60 231 2.0 6.0 0.00 0.00 0.00 88 1015.1
20260508053104 60 174 2.0 3.0 0.00 0.00 0.00 89 1014.8
20260508052556 60 191 2.0 3.0 0.00 0.00 0.00 89 1015.1
20260508052048 60 139 2.0 4.0 0.00 0.00 0.00 89 1015.1
20260508051034 60 224 1.0 3.0 0.00 0.00 0.00 89 1015.1
20260508050525 60 181 2.0 3.0 0.00 0.00 0.00 89 1014.8
20260508050017 60 261 0.0 3.0 0.00 0.00 0.00 89 1014.8
20260508045510 60 295 1.0 3.0 0.00 0.00 0.00 89 1014.8
20260508045002 60 252 2.0 4.0 0.00 0.00 0.00 89 1014.8
20260508044455 59 295 1.0 4.0 0.00 0.00 0.00 89 1014.8
20260508043948 59 274 3.0 3.0 0.00 0.00 0.00 89 1014.5
20260508043440 59 276 2.0 3.0 0.00 0.00 0.00 89 1014.8
20260508042932 59 270 1.0 3.0 0.00 0.00 0.00 89 1014.5
20260508042424 59 313 1.0 3.0 0.00 0.00 0.00 89 1014.5
20260508041917 59 266 1.0 3.0 0.00 0.00 0.00 89 1014.5
20260508041409 59 249 2.0 3.0 0.00 0.00 0.00 89 1014.5
20260508040902 59 245 3.0 4.0 0.00 0.00 0.00 89 1014.5
20260508035846 59 228 2.0 4.0 0.00 0.00 0.00 89 1014.1
20260508035339 59 208 2.0 4.0 0.00 0.00 0.00 89 1014.1
20260508034831 59 246 3.0 4.0 0.00 0.00 0.00 89 1014.1
20260508034324 59 244 3.0 6.0 0.00 0.00 0.00 89 1013.8
20260508032801 59 238 4.0 7.0 0.00 0.00 0.00 89 1013.8
20260508031745 59 282 2.0 4.0 0.00 0.00 0.00 89 1013.4
20260508031238 59 232 2.0 6.0 0.00 0.00 0.00 89 1013.8
20260508030731 59 228 3.0 6.0 0.00 0.00 0.00 89 1013.4
20260508030223 59 227 3.0 6.0 0.00 0.00 0.00 89 1013.4
20260508025715 59 236 2.0 8.0 0.00 0.00 0.00 89 1013.4
20260508024152 59 268 4.0 8.0 0.00 0.00 0.00 88 1013.4
20260508023645 60 260 3.0 8.0 0.00 0.00 0.00 88 1013.4
20260508022629 60 266 2.0 8.0 0.00 0.00 0.00 87 1013.1
20260508022122 60 225 3.0 8.0 0.00 0.00 0.00 86 1013.1
20260508021615 60 228 6.0 9.0 0.00 0.00 0.00 86 1013.1
20260508020600 61 184 6.0 7.0 0.00 0.00 0.00 83 1013.1
20260508020053 61 281 4.0 8.0 0.00 0.00 0.00 83 1013.1
20260508015544 62 268 3.0 10.0 0.00 0.00 0.00 82 1013.1
20260508015037 62 235 4.0 10.0 0.00 0.00 0.00 83 1013.1
20260508014529 62 288 2.0 9.0 0.00 0.00 0.00 82 1012.8
20260508014022 62 281 5.0 9.0 0.00 0.00 0.00 81 1012.8
20260508013006 62 231 6.0 10.0 0.00 0.00 0.00 82 1012.8
20260508011951 63 214 5.0 10.0 0.00 0.00 0.00 79 1013.1
20260508011444 63 228 6.0 10.0 0.00 0.00 0.00 81 1013.1
20260508010429 62 249 5.0 13.0 0.00 0.00 0.00 82 1012.8
20260508005921 62 262 7.0 13.0 0.00 0.00 0.00 80 1012.8
20260508005413 63 230 7.0 13.0 0.00 0.00 0.00 79 1012.8
20260508004905 64 272 9.0 13.0 0.00 0.00 0.00 78 1012.8
20260508004358 64 234 6.0 13.0 0.00 0.00 0.00 77 1013.1
20260508003851 64 216 8.0 14.0 0.00 0.00 0.00 76 1012.8
20260508003342 65 263 7.0 14.0 0.00 0.00 0.00 75 1012.8
20260508002835 65 231 6.0 11.0 0.00 0.00 0.00 75 1012.8
20260508002328 65 266 5.0 15.0 0.00 0.00 0.00 73 1012.8
20260508001819 65 245 4.0 15.0 0.00 0.00 0.00 72 1012.8
20260508000804 65 211 7.0 13.0 0.00 0.00 0.00 72 1012.8
20260508000257 66 243 9.0 11.0 0.00 0.00 0.00 70 1012.8
20260507235750 66 265 9.0 14.0 0.00 0.00 0.00 69 1012.8
20260507235242 66 256 5.0 14.0 0.00 0.00 0.00 70 1012.8
20260507234734 65 182 5.0 13.0 0.00 0.00 0.00 71 1013.1
20260507234226 66 228 9.0 13.0 0.00 0.00 0.00 71 1013.1
20260507233719 66 281 8.0 13.0 0.00 0.00 0.00 71 1012.8
20260507233212 65 207 6.0 13.0 0.00 0.00 0.00 73 1013.1
20260507232703 65 252 6.0 13.0 0.00 0.00 0.00 73 1013.1
20260507232156 65 257 6.0 13.0 0.00 0.00 0.00 72 1013.1
20260507231648 66 230 8.0 10.0 0.00 0.00 0.00 73 1013.1
20260507231141 66 271 6.0 10.0 0.00 0.00 0.00 72 1013.1
20260507230125 65 219 6.0 14.0 0.00 0.00 0.00 73 1013.1
20260507225618 67 196 6.0 13.0 0.00 0.00 0.00 71 1013.1
20260507225110 66 272 6.0 13.0 0.00 0.00 0.00 75 1013.1
20260507224603 65 232 9.0 13.0 0.00 0.00 0.00 76 1013.1
20260507224055 65 235 9.0 15.0 0.00 0.00 0.00 77 1013.4
20260507223548 66 213 13.0 15.0 0.00 0.00 0.00 75 1013.4
20260507222533 66 238 9.0 14.0 0.00 0.00 0.00 75 1013.4
20260507222026 67 199 9.0 14.0 0.00 0.00 0.00 74 1013.4
20260507221518 66 248 6.0 14.0 0.00 0.00 0.00 73 1013.4
20260507221011 67 198 5.0 14.0 0.00 0.00 0.00 74 1013.4
20260507220504 66 197 9.0 13.0 0.00 0.00 0.00 73 1013.4
20260507215957 67 15 9.0 14.0 0.00 0.00 0.00 72 1013.4
20260507215449 66 328 8.0 16.0 0.00 0.00 0.00 73 1013.4
20260507214941 66 246 6.0 16.0 0.00 0.00 0.00 73 1013.8
20260507214434 67 263 4.0 13.0 0.00 0.00 0.00 72 1013.8
20260507212912 67 202 5.0 14.0 0.00 0.00 0.00 72 1013.8
20260507211858 66 274 8.0 15.0 0.00 0.00 0.00 71 1014.1
20260507211351 66 275 7.0 15.0 0.00 0.00 0.00 74 1014.1
20260507210844 67 218 8.0 13.0 0.00 0.00 0.00 72 1014.1
20260507210336 67 258 6.0 15.0 0.00 0.00 0.00 72 1014.1
20260507205829 67 246 9.0 15.0 0.00 0.00 0.00 73 1014.5
20260507205323 67 198 6.0 15.0 0.00 0.00 0.00 72 1014.5
20260507204814 66 297 8.0 15.0 0.00 0.00 0.00 72 1014.5
20260507204307 67 210 6.0 13.0 0.00 0.00 0.00 70 1014.5
20260507203759 66 261 8.0 15.0 0.00 0.00 0.00 72 1014.5
20260507203252 66 147 12.0 15.0 0.00 0.00 0.00 70 1014.5
20260507202745 67 217 12.0 13.0 0.00 0.00 0.00 71 1014.5
20260507202238 67 219 8.0 11.0 0.00 0.00 0.00 70 1014.5
20260507201730 67 213 5.0 14.0 0.00 0.00 0.00 72 1014.5
20260507201223 66 220 9.0 14.0 0.00 0.00 0.00 73 1014.5
20260507200715 66 241 5.0 13.0 0.00 0.00 0.00 73 1014.5
20260507200208 67 189 5.0 11.0 0.00 0.00 0.00 73 1014.5
20260507195701 67 220 9.0 11.0 0.00 0.00 0.00 70 1014.8
20260507195154 67 200 8.0 10.0 0.00 0.00 0.00 72 1014.8
20260507194646 67 216 6.0 11.0 0.00 0.00 0.00 72 1014.8
20260507194139 66 215 8.0 14.0 0.00 0.00 0.00 74 1014.8
20260507192617 66 266 7.0 11.0 0.00 0.00 0.00 72 1014.8
20260507191055 67 235 9.0 11.0 0.00 0.00 0.00 72 1015.1
20260507190548 67 257 6.0 11.0 0.00 0.00 0.00 70 1015.1
20260507190040 66 203 8.0 11.0 0.00 0.00 0.00 72 1015.1
20260507185533 67 237 7.0 11.0 0.00 0.00 0.00 72 1015.1
20260507185026 67 186 6.0 10.0 0.00 0.00 0.00 69 1015.1
20260507184519 67 217 7.0 10.0 0.00 0.00 0.00 70 1015.1
20260507184011 66 229 6.0 10.0 0.00 0.00 0.00 73 1015.1
20260507183503 67 239 4.0 9.0 0.00 0.00 0.00 71 1015.1
20260507182449 66 252 4.0 8.0 0.00 0.00 0.00 72 1015.1
20260507181942 66 222 3.0 9.0 0.00 0.00 0.00 71 1015.1
20260507180928 66 233 8.0 11.0 0.00 0.00 0.00 73 1015.1
20260507175913 66 266 4.0 9.0 0.00 0.00 0.00 73 1015.1
20260507175405 66 186 6.0 8.0 0.00 0.00 0.00 73 1015.1
20260507174351 65 215 3.0 9.0 0.00 0.00 0.00 76 1015.1
20260507172830 65 334 2.0 10.0 0.00 0.00 0.00 75 1015.5
20260507172322 66 214 6.0 10.0 0.00 0.00 0.00 73 1015.5
20260507171815 65 332 1.0 9.0 0.00 0.00 0.00 75 1015.1
20260507171308 66 261 4.0 8.0 0.00 0.00 0.00 72 1015.1
20260507170800 66 305 3.0 8.0 0.00 0.00 0.00 72 1015.1
20260507170253 66 199 4.0 8.0 0.00 0.00 0.00 72 1015.5
20260507165746 65 202 6.0 8.0 0.00 0.00 0.00 73 1015.1
20260507165239 66 281 4.0 7.0 0.00 0.00 0.00 73 1015.5
20260507163717 65 293 2.0 10.0 0.00 0.00 0.00 75 1015.5
20260507162702 64 211 5.0 7.0 0.00 0.00 0.00 77 1015.5
20260507162155 64 258 2.0 6.0 0.00 0.00 0.00 77 1015.5
20260507161648 64 272 1.0 7.0 0.00 0.00 0.00 78 1015.5
20260507161142 64 226 3.0 7.0 0.00 0.00 0.00 78 1015.5
20260507160634 64 182 2.0 6.0 0.00 0.00 0.00 77 1015.5
20260507160125 64 267 4.0 6.0 0.00 0.00 0.00 77 1015.5
20260507155111 64 245 3.0 7.0 0.00 0.00 0.00 78 1015.8
20260507154604 63 240 4.0 6.0 0.00 0.00 0.00 79 1015.5
20260507154057 63 235 2.0 6.0 0.00 0.00 0.00 79 1015.5
20260507153550 63 231 1.0 6.0 0.00 0.00 0.00 79 1015.5
20260507153042 63 337 2.0 6.0 0.00 0.00 0.00 79 1015.5
20260507152027 62 196 2.0 4.0 0.00 0.00 0.00 79 1015.5
20260507151521 62 148 3.0 4.0 0.00 0.00 0.00 79 1015.5
20260507151014 62 147 1.0 3.0 0.00 0.00 0.00 80 1015.5
20260507150507 62 219 1.0 4.0 0.00 0.00 0.00 80 1015.5
20260507145959 62 244 0.0 4.0 0.00 0.00 0.00 80 1015.5
20260507145452 62 175 2.0 3.0 0.00 0.00 0.00 79 1015.5
20260507144944 62 193 2.0 3.0 0.00 0.00 0.00 79 1015.5
20260507144437 62 239 1.0 2.0 0.00 0.00 0.00 79 1015.5
20260507143930 62 310 0.0 1.0 0.00 0.00 0.00 81 1015.5
20260507143422 61 311 0.0 1.0 0.00 0.00 0.00 80 1015.5
20260507142915 61 315 0.0 1.0 0.00 0.00 0.00 81 1015.5
20260507142408 61 338 1.0 1.0 0.00 0.00 0.00 81 1015.5
20260507141900 60 338 0.0 1.0 0.00 0.00 0.00 81 1015.1
20260507141353 59 338 0.0 1.0 0.00 0.00 0.00 82 1015.1
20260507140339 58 338 0.0 1.0 0.00 0.00 0.00 83 1015.1
20260507135831 58 338 0.0 2.0 0.00 0.00 0.00 84 1015.1
20260507134817 56 332 1.0 2.0 0.00 0.00 0.00 84 1015.1
20260507134310 56 333 1.0 1.0 0.00 0.00 0.00 85 1015.1
20260507133803 56 329 1.0 2.0 0.00 0.00 0.00 85 1015.1
20260507132747 55 330 0.0 2.0 0.00 0.00 0.00 86 1015.1
20260507132240 55 339 1.0 2.0 0.00 0.00 0.00 87 1015.1
20260507130718 55 328 2.0 2.0 0.00 0.00 0.00 87 1014.8
20260507125157 55 328 1.0 2.0 0.00 0.00 0.00 87 1014.8
20260507124650 55 328 2.0 2.0 0.00 0.00 0.00 87 1014.8
20260507124142 55 325 1.0 2.0 0.00 0.00 0.00 87 1014.8
20260507123635 55 323 1.0 2.0 0.00 0.00 0.00 87 1014.8
20260507123128 55 319 0.0 2.0 0.00 0.00 0.00 87 1014.5
20260507122113 54 323 0.0 2.0 0.00 0.00 0.00 87 1014.8
20260507121605 54 331 1.0 1.0 0.00 0.00 0.00 87 1014.8
20260507121058 55 331 0.0 1.0 0.00 0.00 0.00 87 1014.8
20260507120551 55 331 0.0 1.0 0.00 0.00 0.00 87 1014.8
20260507120044 54 331 0.0 0.0 0.00 0.00 0.00 86 1014.5
20260507115537 55 331 0.0 1.0 0.00 0.00 0.00 86 1014.8
20260507115029 55 331 0.0 1.0 0.00 0.00 0.00 86 1014.8
20260507114522 55 337 1.0 1.0 0.00 0.00 0.00 86 1014.8
20260507114015 55 337 0.0 1.0 0.00 0.00 0.00 86 1014.8
20260507113508 55 337 0.0 1.0 0.00 0.00 0.00 85 1014.8
20260507113001 55 337 0.0 1.0 0.00 0.00 0.00 85 1014.8
20260507112453 55 337 0.0 2.0 0.00 0.00 0.00 86 1014.8
20260507111946 55 332 1.0 2.0 0.00 0.00 0.00 86 1014.8
20260507110931 55 325 1.0 3.0 0.00 0.00 0.00 85 1015.1
20260507105916 55 329 1.0 2.0 0.00 0.00 0.00 85 1015.1
20260507105409 56 329 0.0 1.0 0.00 0.00 0.00 85 1014.8
20260507104902 56 329 0.0 1.0 0.00 0.00 0.00 86 1015.1
20260507104355 56 329 1.0 1.0 0.00 0.00 0.00 86 1015.1
20260507103848 56 329 0.0 1.0 0.00 0.00 0.00 86 1015.1
20260507103341 56 335 0.0 1.0 0.00 0.00 0.00 85 1015.1
20260507102833 56 336 0.0 1.0 0.00 0.00 0.00 86 1015.1
20260507101819 56 335 0.0 2.0 0.00 0.00 0.00 86 1015.1
20260507101311 56 4 0.0 2.0 0.00 0.00 0.00 87 1015.1
20260507100804 56 350 0.0 2.0 0.00 0.00 0.00 87 1015.1
20260507100257 56 335 0.0 1.0 0.00 0.00 0.00 88 1015.1
20260507095750 56 335 0.0 2.0 0.00 0.00 0.00 88 1015.1